CW3467 Sant Marti de Canals ES current weather conditions

sailwx.info

Wind from 079

Air temperature 25.0° C
Dewpoint 14.4° C

Last reported at 2015-Jul-08 01:48 UTC.
Time now 2015-Jul-08 02:13 UTC

Location: N 42°14' E 000°59'.
View on Google Maps.

See reports from other nearby stations

  
Tides and Currents Weather Stations Pressure Air Temp Water Temp Dewpoint Dewpoint Depression Visibility Wind Speed Wind Dir Waves Ship Positions
date/time (UTC)wind fromknots sea level pressurealtimeterstation pressurevisibilityair tempwater tempwave heightnotes
2015-Jul-08 01:48 079 25.0
2015-Jul-08 01:33 245 25.6
2015-Jul-08 01:17 026 0 gusting 1 25.6
2015-Jul-08 01:03 037 25.6
2015-Jul-08 00:48 123 25.6
2015-Jul-08 00:33 194 26.7
2015-Jul-08 00:18 128 26.7
2015-Jul-08 00:03 128 26.7
2015-Jul-07 23:48 135 27.2
2015-Jul-07 23:33 017 27.2
2015-Jul-07 23:18 100 27.8
2015-Jul-07 23:03 082 28.3
2015-Jul-07 22:48 123 1 gusting 2 28.3
2015-Jul-07 22:33 287 28.9
2015-Jul-07 22:18 121 1 gusting 3 29.4
2015-Jul-07 22:03 160 0 gusting 3 29.4
2015-Jul-07 21:48 123 0 gusting 1 30.0
2015-Jul-07 21:33 051 30.6
2015-Jul-07 21:18 054 1 gusting 3 30.6
2015-Jul-07 21:03 050 0 gusting 2 31.1
2015-Jul-07 20:48 032 31.7
2015-Jul-07 20:33 039 1 gusting 1 31.7
2015-Jul-07 20:18 101 0 gusting 3 32.2
2015-Jul-07 20:03 179 2 gusting 6 32.8
2015-Jul-07 19:48 229 6 gusting 11 33.3
2015-Jul-07 19:44 221 6 gusting 11 33.3
2015-Jul-07 18:02 181 3 gusting 6 36.7
2015-Jul-07 17:47 226 4 gusting 11 36.7
2015-Jul-07 17:32 225 4 gusting 15 36.7
2015-Jul-07 17:17 199 6 gusting 11 37.2
2015-Jul-07 17:01 212 7 gusting 15 37.8
2015-Jul-07 16:46 283 6 gusting 16 37.8
2015-Jul-07 16:31 232 5 gusting 13 38.9
2015-Jul-07 16:16 224 8 gusting 14 38.3
2015-Jul-07 16:01 214 5 gusting 9 38.9
2015-Jul-07 15:46 226 6 gusting 15 38.9
2015-Jul-07 15:31 198 5 gusting 15 38.9
2015-Jul-07 15:16 218 6 gusting 14 38.9
2015-Jul-07 15:01 262 5 gusting 13 38.9
2015-Jul-07 14:46 229 6 gusting 13 38.9
2015-Jul-07 14:31 238 4 gusting 14 38.9
2015-Jul-07 14:16 212 5 gusting 10 39.4
2015-Jul-07 14:01 285 4 gusting 13 38.9
2015-Jul-07 13:46 210 4 gusting 13 38.9
2015-Jul-07 13:31 252 7 gusting 13 38.3
2015-Jul-07 13:16 224 4 gusting 13 38.3
2015-Jul-07 13:01 167 6 gusting 11 38.3
2015-Jul-07 12:46 005 3 gusting 8 37.8
2015-Jul-07 12:31 180 1 gusting 8 38.3
2015-Jul-07 12:16 297 3 gusting 9 37.2
2015-Jul-07 12:01 247 0 gusting 9 37.8
2015-Jul-07 11:46 228 3 gusting 10 37.2
2015-Jul-07 11:16 245 2 gusting 10 36.7
2015-Jul-07 11:01 237 3 gusting 7 36.1
2015-Jul-07 10:46 249 2 gusting 6 35.6
2015-Jul-07 10:31 294 1 gusting 4 35.6
2015-Jul-07 10:16 272 2 gusting 4 35.0
2015-Jul-07 10:01 278 0 gusting 3 33.9
2015-Jul-07 09:45 264 34.4
2015-Jul-07 09:30 145 0 gusting 3 32.8
2015-Jul-07 09:15 228 0 gusting 3 32.2
2015-Jul-07 09:00 222 31.7
2015-Jul-07 08:45 220 0 gusting 3 30.6
2015-Jul-07 08:30 229 1 gusting 4 30.0
2015-Jul-07 08:15 229 30.0
2015-Jul-07 08:00 238 28.9
2015-Jul-07 07:45 232 27.8
2015-Jul-07 07:30 143 0 gusting 4 26.7
2015-Jul-07 07:15 210 0 gusting 3 26.1
2015-Jul-07 06:45 207 26.1
2015-Jul-07 06:30 124 25.6
2015-Jul-07 06:15 124 25.0
2015-Jul-07 06:00 124 23.9
2015-Jul-07 05:48 124 23.3
2015-Jul-07 05:15 123 22.2
2015-Jul-07 05:00 124 22.2
2015-Jul-07 04:45 122 22.2
2015-Jul-07 04:15 158 22.8
2015-Jul-07 04:00 158 22.8
2015-Jul-07 03:45 158 22.8
2015-Jul-07 03:30 160 23.3
2015-Jul-07 03:15 149 23.3
2015-Jul-07 03:00 084 23.3
2015-Jul-07 02:45 104 23.3
2015-Jul-07 02:30 099 23.9
2015-Jul-07 02:15 098 24.4
2015-Jul-07 02:00 101 24.4
2015-Jul-07 01:44 101 1 gusting 2 23.9
2015-Jul-07 01:29 218 24.4
2015-Jul-07 01:14 120 25.0
2015-Jul-07 00:59 120 25.0
2015-Jul-07 00:44 117 25.6
2015-Jul-07 00:29 058 0 gusting 1 25.6
2015-Jul-07 00:14 284 0 gusting 3 25.6
2015-Jul-06 23:59 060 0 gusting 1 25.6
2015-Jul-06 23:44 134 26.1
2015-Jul-06 23:29 098 26.1
2015-Jul-06 23:14 094 0 gusting 1 26.1
2015-Jul-06 22:59 302 26.7
2015-Jul-06 22:44 030 27.2
2015-Jul-06 22:29 222 27.8
2015-Jul-06 22:14 125 28.9
2015-Jul-06 22:00 104 1 gusting 3 28.3
2015-Jul-06 21:44 156 0 gusting 1 29.4
2015-Jul-06 21:29 021 0 gusting 2 30.0
2015-Jul-06 21:14 337 0 gusting 4 30.6
2015-Jul-06 20:59 046 0 gusting 3 30.0
2015-Jul-06 20:44 010 2 gusting 5 30.6
2015-Jul-06 20:29 167 0 gusting 5 31.1
2015-Jul-06 20:14 117 4 gusting 9 31.7
2015-Jul-06 19:59 143 4 gusting 6 31.7
2015-Jul-06 19:44 183 2 gusting 6 32.2
2015-Jul-06 19:29 114 1 gusting 5 32.8
2015-Jul-06 19:14 157 2 gusting 7 33.3
2015-Jul-06 18:59 144 3 gusting 6 33.9
2015-Jul-06 18:44 146 5 gusting 9 34.4
2015-Jul-06 18:29 141 6 gusting 11 35.6
2015-Jul-06 18:14 205 2 gusting 6 36.1
2015-Jul-06 17:59 209 4 gusting 10 36.7
2015-Jul-06 17:44 218 3 gusting 6 36.7
2015-Jul-06 17:29 214 3 gusting 8 36.7
2015-Jul-06 17:14 212 4 gusting 7 37.2
2015-Jul-06 16:59 150 5 gusting 9 37.2
2015-Jul-06 16:44 204 3 gusting 9 37.2
2015-Jul-06 16:29 167 1 gusting 8 37.2
2015-Jul-06 16:14 219 2 gusting 10 37.8
2015-Jul-06 15:59 240 3 gusting 6 37.8
2015-Jul-06 15:44 207 6 gusting 12 38.3
2015-Jul-06 15:29 281 0 gusting 4 38.3
2015-Jul-06 15:14 200 1 gusting 7 38.3
2015-Jul-06 14:59 204 3 gusting 6 37.8
2015-Jul-06 14:44 236 2 gusting 6 37.8
2015-Jul-06 14:29 233 4 gusting 7 37.8
2015-Jul-06 14:14 210 4 gusting 9 37.8
2015-Jul-06 13:59 229 3 gusting 6 37.8
2015-Jul-06 13:43 236 1 gusting 8 37.2
2015-Jul-06 13:28 129 2 gusting 12 37.2
2015-Jul-06 13:13 225 2 gusting 9 37.2
2015-Jul-06 12:58 311 3 gusting 7 36.7
2015-Jul-06 12:43 270 2 gusting 8 36.7
2015-Jul-06 12:28 215 3 gusting 7 36.7
2015-Jul-06 12:13 340 3 gusting 7 36.1
2015-Jul-06 11:58 302 36.1
2015-Jul-06 11:43 306 1 gusting 6 35.6
2015-Jul-06 11:28 239 1 gusting 6 35.0
2015-Jul-06 11:13 233 2 gusting 6 35.0
2015-Jul-06 10:58 238 1 gusting 5 34.4
2015-Jul-06 10:43 276 1 gusting 5 34.4
2015-Jul-06 10:28 212 33.9
2015-Jul-06 10:13 308 33.3
2015-Jul-06 09:58 264 32.8
2015-Jul-06 09:43 240 0 gusting 3 32.2
2015-Jul-06 09:28 219 0 gusting 2 31.1
2015-Jul-06 09:13 222 0 gusting 3 30.6
2015-Jul-06 08:58 260 0 gusting 3 30.6
2015-Jul-06 08:43 262 30.0
2015-Jul-06 08:28 228 29.4
2015-Jul-06 08:13 160 28.9
2015-Jul-06 07:58 293 28.3
2015-Jul-06 07:43 136 26.7
2015-Jul-06 07:27 145 25.6
2015-Jul-06 07:12 117 0 gusting 3 24.4
2015-Jul-06 06:57 134 0 gusting 3 23.9
2015-Jul-06 06:42 218 24.4
2015-Jul-06 06:28 053 23.9
2015-Jul-06 06:12 048 22.8
2015-Jul-06 05:57 083 22.2
2015-Jul-06 05:42 084 21.1
2015-Jul-06 05:27 048 20.6
2015-Jul-06 05:12 048 20.6
2015-Jul-06 04:57 100 20.6
2015-Jul-06 04:42 101 20.0
2015-Jul-06 04:27 100 20.6
2015-Jul-06 04:12 146 20.0
2015-Jul-06 03:57 147 20.6
2015-Jul-06 03:42 146 21.1
2015-Jul-06 03:27 146 21.1
2015-Jul-06 03:12 147 21.1
2015-Jul-06 02:57 159 21.7
2015-Jul-06 02:42 134 21.7
2015-Jul-06 02:27 115 0 gusting 1 21.7
2015-Jul-06 02:12 136 22.2